LIC0195 LEBA-LEVD

Flight info

Callsign LIC0195
Flight time 0h 49m
Altitude 32000
Route HIJ DCT BBI DCT NUB
Aircraft A320/M-SDE3FGHIRWY/LB1

Departure

Time 2026-05-05 16:29
Airport Córdoba Airport (LEBA)

Arrival

Time 2026-05-05 17:18
Airport Valladolid Airport (LEVD)
Time Latitude Longitude Altitude Speed Heading
2026-05-05 16:18 37.84348 -4.84532 310 ft 0 kts 118°
2026-05-05 16:24 37.84347 -4.84530 310 ft 0 kts 118°
2026-05-05 16:24 37.84306 -4.84543 310 ft 7 kts 234°
2026-05-05 16:25 37.84309 -4.84618 309 ft 10 kts 290°
2026-05-05 16:25 37.84420 -4.84741 307 ft 12 kts 28°
2026-05-05 16:25 37.84488 -4.84687 308 ft 14 kts 31°
2026-05-05 16:26 37.84711 -4.84527 308 ft 18 kts 29°
2026-05-05 16:26 37.84928 -4.84376 306 ft 17 kts 29°
2026-05-05 16:27 37.85022 -4.84310 308 ft 15 kts 28°
2026-05-05 16:27 37.85117 -4.84222 307 ft 17 kts 58°
2026-05-05 16:27 37.85187 -4.84166 310 ft 12 kts 322°
2026-05-05 16:27 37.85142 -4.84232 308 ft 13 kts 205°
2026-05-05 16:28 37.85135 -4.84237 307 ft 0 kts 206°
2026-05-05 16:28 37.85134 -4.84237 307 ft 0 kts 206°
2026-05-05 16:28 37.84922 -4.84382 306 ft 73 kts 209°
2026-05-05 16:29 37.84282 -4.84829 307 ft 134 kts 209°
2026-05-05 16:29 37.83335 -4.85503 499 ft 165 kts 210°
2026-05-05 16:29 37.82353 -4.86171 1382 ft 158 kts 210°
2026-05-05 16:29 37.81399 -4.86892 2061 ft 159 kts 221°
2026-05-05 16:30 37.80754 -4.88018 2595 ft 166 kts 256°
2026-05-05 16:30 37.80785 -4.89520 3044 ft 181 kts 290°
2026-05-05 16:30 37.81561 -4.90843 3461 ft 200 kts 321°
2026-05-05 16:30 37.82890 -4.91605 3840 ft 221 kts 341°
2026-05-05 16:31 37.84480 -4.92066 4209 ft 248 kts 346°
2026-05-05 16:31 37.86233 -4.92459 4960 ft 259 kts 348°
2026-05-05 16:31 37.88015 -4.92845 5967 ft 261 kts 348°
2026-05-05 16:31 37.89815 -4.93258 6853 ft 266 kts 347°
2026-05-05 16:32 37.91651 -4.93706 7709 ft 270 kts 346°
2026-05-05 16:32 37.93508 -4.94183 8633 ft 275 kts 345°
2026-05-05 16:32 37.95390 -4.94685 9555 ft 278 kts 345°
2026-05-05 16:32 37.97301 -4.95206 10339 ft 287 kts 344°
2026-05-05 16:33 37.99331 -4.95773 10644 ft 311 kts 344°
2026-05-05 16:33 38.01508 -4.96385 11097 ft 327 kts 344°
2026-05-05 16:33 38.03718 -4.96999 11805 ft 333 kts 344°
2026-05-05 16:33 38.06004 -4.97626 12544 ft 338 kts 343°
2026-05-05 16:34 38.08318 -4.98254 13342 ft 341 kts 343°
2026-05-05 16:34 38.10650 -4.98885 14105 ft 344 kts 343°
2026-05-05 16:34 38.13003 -4.99522 14807 ft 347 kts 343°
2026-05-05 16:34 38.15376 -5.00170 15485 ft 350 kts 343°
2026-05-05 16:35 38.17772 -5.00829 16163 ft 354 kts 343°
2026-05-05 16:35 38.20186 -5.01497 16856 ft 357 kts 343°
2026-05-05 16:35 38.22629 -5.02173 17521 ft 361 kts 343°
2026-05-05 16:35 38.25093 -5.02852 18197 ft 364 kts 343°
2026-05-05 16:36 38.27579 -5.03535 18774 ft 367 kts 343°
2026-05-05 16:36 38.30087 -5.04224 19315 ft 371 kts 342°
2026-05-05 16:36 38.32621 -5.04924 19854 ft 374 kts 342°
2026-05-05 16:36 38.35179 -5.05632 20385 ft 378 kts 342°
2026-05-05 16:37 38.37761 -5.06347 20913 ft 381 kts 342°
2026-05-05 16:37 38.40364 -5.07069 21416 ft 385 kts 342°
2026-05-05 16:37 38.42992 -5.07798 21943 ft 388 kts 342°
2026-05-05 16:37 38.45643 -5.08535 22440 ft 392 kts 342°
2026-05-05 16:38 38.48319 -5.09279 22937 ft 395 kts 342°
2026-05-05 16:38 38.51029 -5.09989 23424 ft 401 kts 346°
2026-05-05 16:38 38.53824 -5.10398 23835 ft 406 kts 348°
2026-05-05 16:38 38.56642 -5.10780 24314 ft 408 kts 347°
2026-05-05 16:39 38.59470 -5.11162 24742 ft 410 kts 347°
2026-05-05 16:39 38.62315 -5.11548 25157 ft 412 kts 346°
2026-05-05 16:39 38.65172 -5.11938 25554 ft 414 kts 346°
2026-05-05 16:39 38.68047 -5.12334 25944 ft 417 kts 346°
2026-05-05 16:40 38.70939 -5.12737 26324 ft 420 kts 346°
2026-05-05 16:40 38.73850 -5.13144 26727 ft 422 kts 346°
2026-05-05 16:40 38.76777 -5.13553 27117 ft 424 kts 346°
2026-05-05 16:40 38.79679 -5.13955 27568 ft 426 kts 346°
2026-05-05 16:41 38.82669 -5.14366 27914 ft 428 kts 345°
2026-05-05 16:41 38.85595 -5.14768 28285 ft 430 kts 345°
2026-05-05 16:41 38.88579 -5.15182 28650 ft 432 kts 345°
2026-05-05 16:41 38.91576 -5.15601 28996 ft 435 kts 345°
2026-05-05 16:42 38.94590 -5.16022 29346 ft 437 kts 345°
2026-05-05 16:42 38.97621 -5.16443 29684 ft 439 kts 345°
2026-05-05 16:42 39.00666 -5.16865 29998 ft 442 kts 345°
2026-05-05 16:42 39.03732 -5.17291 30325 ft 444 kts 346°
2026-05-05 16:43 39.06805 -5.17720 30596 ft 446 kts 345°
2026-05-05 16:43 39.09898 -5.18154 30862 ft 448 kts 345°
2026-05-05 16:43 39.12998 -5.18588 31139 ft 448 kts 345°
2026-05-05 16:43 39.16096 -5.19020 31510 ft 447 kts 345°
2026-05-05 16:44 39.19186 -5.19450 31853 ft 447 kts 345°
2026-05-05 16:44 39.22274 -5.19879 31949 ft 443 kts 345°
2026-05-05 16:44 39.28301 -5.20708 31960 ft 431 kts 345°
2026-05-05 16:45 39.34252 -5.21549 31965 ft 430 kts 345°
2026-05-05 16:45 39.40196 -5.22396 31961 ft 430 kts 345°
2026-05-05 16:46 39.46143 -5.23241 31960 ft 430 kts 345°
2026-05-05 16:46 39.52079 -5.24080 31990 ft 428 kts 345°
2026-05-05 16:47 39.57995 -5.24905 31978 ft 427 kts 345°
2026-05-05 16:47 39.63904 -5.25744 31972 ft 427 kts 345°
2026-05-05 16:48 39.69803 -5.26589 31994 ft 426 kts 345°
2026-05-05 16:48 39.75628 -5.27416 31981 ft 425 kts 345°
2026-05-05 16:49 39.81494 -5.28245 31980 ft 423 kts 345°
2026-05-05 16:49 39.87345 -5.29077 31968 ft 423 kts 345°
2026-05-05 16:50 39.93185 -5.29915 31972 ft 420 kts 345°
2026-05-05 16:50 39.98961 -5.30741 31958 ft 416 kts 345°
2026-05-05 16:51 40.04718 -5.31570 31958 ft 416 kts 345°
2026-05-05 16:51 40.10468 -5.32396 31953 ft 415 kts 345°
2026-05-05 16:52 40.16212 -5.33224 31977 ft 415 kts 345°
2026-05-05 16:52 40.21945 -5.34045 31966 ft 415 kts 345°
2026-05-05 16:53 40.27675 -5.34870 31965 ft 414 kts 345°
2026-05-05 16:53 40.33408 -5.35698 31962 ft 414 kts 345°
2026-05-05 16:54 40.39129 -5.36534 32004 ft 413 kts 345°
2026-05-05 16:54 40.44836 -5.37361 32000 ft 412 kts 345°
2026-05-05 16:55 40.50534 -5.38190 31413 ft 412 kts 345°
2026-05-05 16:55 40.53377 -5.38604 30912 ft 411 kts 345°
2026-05-05 16:55 40.56215 -5.39016 30422 ft 409 kts 345°
2026-05-05 16:56 40.59033 -5.39422 29922 ft 406 kts 345°
2026-05-05 16:56 40.61829 -5.39824 29356 ft 402 kts 345°
2026-05-05 16:56 40.64595 -5.40221 28800 ft 398 kts 345°
2026-05-05 16:56 40.67332 -5.40615 28257 ft 393 kts 345°
2026-05-05 16:57 40.70037 -5.41008 27722 ft 389 kts 345°
2026-05-05 16:57 40.72713 -5.41396 27198 ft 385 kts 345°
2026-05-05 16:57 40.75358 -5.41783 26682 ft 380 kts 345°
2026-05-05 16:57 40.77971 -5.42167 26184 ft 376 kts 345°
2026-05-05 16:58 40.80562 -5.42552 25738 ft 374 kts 345°
2026-05-05 16:58 40.83136 -5.42937 25255 ft 371 kts 345°
2026-05-05 16:58 40.85689 -5.43316 24780 ft 368 kts 345°
2026-05-05 16:58 40.88220 -5.43690 24312 ft 364 kts 345°
2026-05-05 16:59 40.90725 -5.44061 23849 ft 360 kts 345°
2026-05-05 16:59 40.93205 -5.44427 23342 ft 357 kts 345°
2026-05-05 16:59 40.95631 -5.44785 22802 ft 355 kts 346°
2026-05-05 16:59 40.98116 -5.45109 22254 ft 356 kts 350°
2026-05-05 17:00 41.00576 -5.44923 21754 ft 364 kts
2026-05-05 17:00 41.03046 -5.44054 21228 ft 371 kts 14°
2026-05-05 17:00 41.05370 -5.42495 20707 ft 378 kts 26°
2026-05-05 17:00 41.07469 -5.40656 20222 ft 377 kts 27°
2026-05-05 17:01 41.09647 -5.38744 19724 ft 374 kts 28°
2026-05-05 17:01 41.11811 -5.36849 19230 ft 372 kts 28°
2026-05-05 17:01 41.13967 -5.34970 18745 ft 370 kts 28°
2026-05-05 17:01 41.16109 -5.33104 18266 ft 367 kts 30°
2026-05-05 17:02 41.18239 -5.31244 17739 ft 365 kts 30°
2026-05-05 17:02 41.20354 -5.29391 17176 ft 364 kts 30°
2026-05-05 17:02 41.22462 -5.27544 16644 ft 362 kts 30°
2026-05-05 17:02 41.24563 -5.25708 16121 ft 361 kts 30°
2026-05-05 17:03 41.26658 -5.23877 15609 ft 360 kts 30°
2026-05-05 17:03 41.28744 -5.22051 15107 ft 358 kts 31°
2026-05-05 17:03 41.30821 -5.20229 14609 ft 357 kts 31°
2026-05-05 17:03 41.32888 -5.18411 14125 ft 355 kts 31°
2026-05-05 17:04 41.34943 -5.16602 13629 ft 353 kts 31°
2026-05-05 17:04 41.36989 -5.14803 13094 ft 352 kts 31°
2026-05-05 17:04 41.39025 -5.13013 12558 ft 350 kts 31°
2026-05-05 17:04 41.41019 -5.11257 12057 ft 347 kts 31°
2026-05-05 17:05 41.43053 -5.09463 11531 ft 345 kts 31°
2026-05-05 17:05 41.45032 -5.07714 11048 ft 334 kts 31°
2026-05-05 17:05 41.46936 -5.06029 10802 ft 324 kts 31°
2026-05-05 17:05 41.48790 -5.04384 10559 ft 316 kts 30°
2026-05-05 17:06 41.50603 -5.02778 10326 ft 309 kts 30°
2026-05-05 17:06 41.52363 -5.01222 10197 ft 298 kts 30°
2026-05-05 17:06 41.54039 -4.99742 10078 ft 288 kts 31°
2026-05-05 17:06 41.55690 -4.98282 9909 ft 282 kts 31°
2026-05-05 17:07 41.57347 -4.96818 9775 ft 282 kts 30°
2026-05-05 17:07 41.58959 -4.95391 9496 ft 281 kts 30°
2026-05-05 17:07 41.60587 -4.93948 9117 ft 280 kts 30°
2026-05-05 17:07 41.62210 -4.92507 8731 ft 280 kts 30°
2026-05-05 17:08 41.63831 -4.91068 8342 ft 280 kts 30°
2026-05-05 17:08 41.65446 -4.89631 7956 ft 278 kts 30°
2026-05-05 17:08 41.67056 -4.88197 7567 ft 277 kts 31°
2026-05-05 17:08 41.68660 -4.86770 7190 ft 277 kts 31°
2026-05-05 17:09 41.70254 -4.85341 6805 ft 275 kts 33°
2026-05-05 17:09 41.71673 -4.83615 6427 ft 275 kts 42°
2026-05-05 17:09 41.73032 -4.81816 6028 ft 274 kts 42°
2026-05-05 17:09 41.74379 -4.80025 5647 ft 272 kts 41°
2026-05-05 17:10 41.75714 -4.78251 5278 ft 269 kts 42°
2026-05-05 17:10 41.77033 -4.76499 4906 ft 265 kts 42°
2026-05-05 17:10 41.78358 -4.74826 4655 ft 255 kts 32°
2026-05-05 17:10 41.79898 -4.73932 4650 ft 232 kts
2026-05-05 17:11 41.81440 -4.73996 4649 ft 219 kts 342°
2026-05-05 17:11 41.82824 -4.74668 4649 ft 205 kts 334°
2026-05-05 17:11 41.84131 -4.75426 4653 ft 206 kts 333°
2026-05-05 17:11 41.85468 -4.76137 4651 ft 209 kts 342°
2026-05-05 17:12 41.86917 -4.76325 4655 ft 211 kts
2026-05-05 17:12 41.88336 -4.75786 4654 ft 215 kts 25°
2026-05-05 17:12 41.89522 -4.74544 4658 ft 219 kts 47°
2026-05-05 17:12 41.90280 -4.72760 4659 ft 223 kts 71°
2026-05-05 17:13 41.90476 -4.70691 4655 ft 227 kts 93°
2026-05-05 17:13 41.90072 -4.68659 4661 ft 227 kts 117°
2026-05-05 17:13 41.89118 -4.66986 4657 ft 227 kts 141°
2026-05-05 17:13 41.87763 -4.65951 4657 ft 224 kts 166°
2026-05-05 17:14 41.86241 -4.65710 4658 ft 220 kts 189°
2026-05-05 17:14 41.84800 -4.66263 4654 ft 214 kts 212°
2026-05-05 17:14 41.83644 -4.67475 4631 ft 212 kts 229°
2026-05-05 17:14 41.82618 -4.68874 4605 ft 209 kts 228°
2026-05-05 17:15 41.81940 -4.69802 4608 ft 211 kts 229°
2026-05-05 17:15 41.80917 -4.71198 4609 ft 209 kts 228°
2026-05-05 17:15 41.79635 -4.72951 4627 ft 187 kts 229°
2026-05-05 17:15 41.78765 -4.74137 4600 ft 170 kts 229°
2026-05-05 17:16 41.77979 -4.75210 4561 ft 154 kts 229°
2026-05-05 17:16 41.77257 -4.76194 4422 ft 144 kts 231°
2026-05-05 17:16 41.76786 -4.76837 4299 ft 142 kts 230°
2026-05-05 17:16 41.76103 -4.77768 4122 ft 139 kts 230°
2026-05-05 17:17 41.75425 -4.78692 3935 ft 139 kts 230°
2026-05-05 17:17 41.74745 -4.79618 3751 ft 140 kts 229°
2026-05-05 17:17 41.74066 -4.80541 3557 ft 138 kts 230°
2026-05-05 17:17 41.73399 -4.81449 3350 ft 136 kts 231°
2026-05-05 17:18 41.72736 -4.82351 3160 ft 134 kts 230°
2026-05-05 17:18 41.72086 -4.83233 2977 ft 131 kts 230°
2026-05-05 17:18 41.71449 -4.84100 2796 ft 130 kts 230°
2026-05-05 17:18 41.71331 -4.84284 2840 ft 21 kts 26°
2026-05-05 17:19 41.71329 -4.84291 2782 ft 0 kts 24°